This demonstration page uses our WeatherBlox Daily Observations layout. Learn more.

Left ArrowRight Arrow

Hourly Observations for July 2, 2021

Temp ( °F °C ) Dew Point ( °F °C ) Humidity (%) Winds ( mph kmh ) Pressure ( in mb ) Visibility ( mi km ) Precip ( " mm )
12:56 am 00:56 Clear 65 18.3 63 17.2 93 93 Calm 30.11 1020 8 13 0.00 0.00
1:56 am 01:56 Clear 65 18.3 62 16.7 90 90 Calm 30.12 1020 8 13 0.00 0.00
2:56 am 02:56 Clear 63 17.2 60 15.6 90 90 N 3 6 30.11 1020 8 13 0.00 0.00
3:56 am 03:56 Clear 62 16.7 59 15 90 90 WNW 3 6 30.11 1020 8 13 0.00 0.00
4:56 am 04:56 Clear with Mist and Fog 60 15.6 58 14.4 93 93 NW 6 9 30.12 1020 6 10 0.00 0.00
5:56 am 05:56 Clear with Mist and Fog 60 15.6 58 14.4 93 93 NNW 5 7 30.14 1021 6 10 0.00 0.00
6:56 am 06:56 Sunny with Mist and Fog 60 15.6 58 14.4 93 93 NW 5 7 30.14 1021 4 6 0.00 0.00
7:56 am 07:56 Sunny with Mist and Fog 65 18.3 62 16.7 90 90 Calm 30.14 1021 4 6 0.00 0.00
8:56 am 08:56 Sunny 71 21.7 63 17.2 76 76 VRB 3 6 30.14 1021 10 16 0.00 0.00
9:56 am 09:56 Sunny 74 23.3 64 17.8 71 71 SE 6 9 30.15 1021 10 16 0.00 0.00
10:56 am 10:56 Mostly Cloudy 74 23.3 64 17.8 71 71 SSE 8 13 30.15 1021 10 16 0.00 0.00
11:56 am 11:56 Mostly Cloudy with Haze 77 25 64 17.8 64 64 SE 5 7 30.14 1021 4 6 0.00 0.00
12:56 pm 12:56 Mostly Sunny 79 26.1 61 16.1 54 54 SSE 8 13 30.14 1021 10 16 0.00 0.00
1:56 pm 13:56 Mostly Sunny 81 27.2 61 16.1 51 51 SE 8 13 30.11 1020 10 16 0.00 0.00
2:56 pm 14:56 Mostly Cloudy 82 27.8 62 16.7 51 51 SE 10 17 30.10 1019 10 16 0.00 0.00
3:56 pm 15:56 Mostly Cloudy 80 26.7 62 16.7 54 54 ESE 8 13 30.09 1019 10 16 0.00 0.00
4:56 pm 16:56 Sunny 81 27.2 62 16.7 53 53 SSE 5 7 30.07 1018 10 16 0.00 0.00
5:56 pm 17:56 Mostly Sunny 83 28.3 60 15.6 46 46 SE 10 17 30.05 1018 10 16 0.00 0.00
6:56 pm 18:56 Sunny 82 27.8 64 17.8 55 55 ESE 12 19 30.04 1017 10 16 0.00 0.00
7:56 pm 19:56 Sunny 79 26.1 64 17.8 60 60 E 8 13 30.03 1017 10 16 0.00 0.00
8:56 pm 20:56 Sunny 74 23.3 64 17.8 71 71 ESE 6 9 30.03 1017 10 16 0.00 0.00
9:56 pm 21:56 Clear 70 21.1 65 18.3 84 84 E 6 9 30.04 1017 8 13 0.00 0.00
10:56 pm 22:56 Partly Cloudy 68 20 64 17.8 87 87 E 5 7 30.06 1018 10 16 0.00 0.00
11:56 pm 23:56 Mostly Cloudy 68 20 63 17.2 84 84 E 5 7 30.07 1018 10 16 0.00 0.00

Powered by AerisWeather